Weather in Ladygi

Ukraine / Khmelnitsky District     49°44′55″N   27°28′11″E
temp.,
°C
wind,
m/s
gust,
m/s
humid.,
%
clouds,
%
prec.,
mm/h
press.,
hPa
HPBL,
m
9 may, sun
sun900:00+2wnw49935 0.0 1021175
03:00+2wnw37945 0.0 1022134
06:00+1wnw37955 0.0 1024146
09:00+7wnw46720 0.0 1025651
12:00+11nw45505 0.0 10241461
15:00+13wnw35435 0.0 10242062
18:00+13nw24437 0.0 10231861
21:00+8ese33595 0.0 102521
10 may, mon
mon1000:00+6sse46655 0.0 102682
03:00+5sse36725 0.0 102686
06:00+5sse357512 0.0 102679
09:00+12sse46608 0.0 1026371
12:00+16sse5650100 0.0 10251328
15:00+17sse55495 0.0 10241494
18:00+17se45550 0.0 10231354
21:00+11se46760 0.0 102482
11 may, tue
tue1100:00+8se47780 0.0 102497
03:00+7ese48820 0.0 1024137
06:00+6ese37860 0.0 1024124
09:00+12ese47590 0.0 1023483
12:00+15e45430 0.0 10211041
15:00+18e45535 0.0 10201263
18:00+18ene465920 0.0 10181210
21:00+13ene35855 0.0 101873
12 may, wed
wed1200:00+11ene38930 0.0 1017167
03:00+10e5109879 0.0 1016322
06:00+7e6119615 0.0 1017407
09:00+9e797564 0.0 1017881
12:00+9ese6968100 0.0 10161201
15:00+10ese6965100 0.0 10151309
18:00+11ese5764100 0.0 10141121
21:00+10ese3771100 0.0 1013236
13 may, thu
thu1300:00+9se377274 0.0 1012218
03:00+5se49904 0.0 1011173
06:00+6se5138093 0.0 1010349
09:00+9se61475100 0.0 1009643
12:00+15sse91264100 0.0 10081274
15:00+12sse71285100 0.3 1009879
18:00+10se41393100 0.9 1009587
21:00+11se41094100 1.0 1008400